Regional Weather Roundup
Issued by NWS

Home | Current Version | Previous Version | Text Only | Print | Product List | Glossary Off
Versions: 1 2 3 4 5 6 7 8 9 10 11 12 13 14 15 16 17 18 19 20 21 22 23 24 25 26 27 28 29 30 31 32 33 34 35 36 37 38 39 40 41 42 43 44 45 46 47 48 49 50

000
ASUS43 KDTX 181501
RWRMI
MICHIGAN HOURLY REGIONAL WEATHER ROUNDUP
NATIONAL WEATHER SERVICE DETROIT/PONTIAC MI
1100 AM EDT THU SEP 18 2014

NOTE: "FAIR" INDICATES FEW OR NO CLOUDS BELOW 12,000 FEET WITH NO
SIGNIFICANT WEATHER AND/OR OBSTRUCTION TO VISIBILITY.

MIZ047>049-052>055-059>063-066>070-074>076-081>083-181600-
SOUTHEAST LOWER MICHIGAN

CITY           SKY/WX    TMP DP  RH WIND       PRES   REMARKS
ADRIAN         SUNNY     62  53  72 E5        30.14S
ALMA           CLOUDY    53  50  92 N5        30.18R
ANN ARBOR      SUNNY     64  52  64 N7        30.13R
BAD AXE        CLOUDY    50  47  89 NE8       30.17S
CARO           CLOUDY    53  50  89 N6        30.16R
DETROIT CITY   MOSUNNY   64  51  62 NE6       30.13S
DETROIT        MOSUNNY   63  53  70 VRB6      30.13S
FLINT          CLOUDY    60  51  72 E6        30.16R
GROSSE ILE     SUNNY     63  55  77 NE9       30.11S
HILLSDALE      SUNNY     62  50  66 CALM      30.14R
HOWELL         CLOUDY    55  51  85 NE8       30.15S

CITY           SKY/WX    TMP DP  RH WIND       PRES   REMARKS
JACKSON        SUNNY     59  51  75 E5        30.15R
LAMBERTVILLE   SUNNY     61  52  72 E5        30.13S
LANSING        CLOUDY    58  51  78 E6        30.17R
LAPEER         CLOUDY    54  51  90 E3        30.16R
MASON          CLOUDY    56  52  88 NE6       30.16R
MONROE         SUNNY     63  55  77 NE5       30.11S
MT. CLEMENS    MOSUNNY   62  51  68 N10       30.11R
PONTIAC        SUNNY     60  49  66 NE10      30.14R
PORT HOPE        N/A     52  43  71 NE13      30.17R
PORT HURON     CLOUDY    59  54  82 N5        30.14R
TRI CITIES     CLOUDY    54  50  86 NE12      30.18R
TROY           SUNNY     62  50  64 N6        30.15R
SAGINAW HB     CLOUDY    54  54 100 NE7       30.17R
$$
MIZ043>046-050>051-056>058-064>065-071>073-077>080-181600-
SOUTHWEST LOWER MICHIGAN

CITY           SKY/WX    TMP DP  RH WIND       PRES   REMARKS
BATTLE CREEK   SUNNY     60  51  72 E6        30.16R
BENTON HARBOR  SUNNY     61  49  64 S7        30.15R
BIG RAPIDS     CLOUDY    52  51  96 E6        30.17S
COLDWATER      SUNNY     63  52  68 NE3       30.14R
FREMONT        CLOUDY    55  49  80 E6        30.17R
HOLLAND        PTSUNNY   61  51  70 E6        30.17R
GRAND RAPIDS   PTSUNNY   55  54  96 E6        30.17R
IONIA          CLOUDY    55  53  92 E6        30.16R
KALAMAZOO      SUNNY     62  50  64 VRB5      30.16R
LUDINGTON      CLOUDY    55  50  82 NE5       30.17S
MARSHALL       SUNNY     56  51  82 CALM      30.15R
MOUNT PLEASANT CLOUDY    51  49  92 NE6       30.18R
MUSKEGON       CLOUDY    57  50  77 E6        30.17R
SOUTH HAVEN    SUNNY     62  51  67 E3        30.16R
$$
MIZ016>042-181600-
NORTHERN LOWER MICHIGAN

CITY           SKY/WX    TMP DP  RH WIND       PRES   REMARKS
ALPENA         CLOUDY    48  35  60 E9        30.22R
BEAVER ISLAND  CLOUDY    49  40  72 E5        30.21S
BELLAIRE       CLOUDY    51  41  69 E6        30.20S
CADILLAC       CLOUDY    49  47  92 NE3       30.17R
CHARLEVOIX     CLOUDY    51  39  64 E10       30.23S
FRANKFORT      MOSUNNY   56  44  63 NE8       30.18R
GAYLORD        CLOUDY    45  37  73 VRB3      30.20R
GRAYLING       CLOUDY    49  43  80 E6        30.20R
HARBOR SPRINGS CLOUDY    50  39  67 E3        30.21S
HOUGHTON LAKE  CLOUDY    48  44  86 E8        30.19R
MANISTEE       PTSUNNY   54  43  66 E7        30.18R
OSCODA         CLOUDY    49  40  71 NE9       30.19S
PELLSTON       CLOUDY    49  38  65 E7        30.21S
ROGERS CITY    CLOUDY    47  38  69 NE9       30.24R
TRAVERSE CITY  PTSUNNY   54  40  59 E6        30.18R
$$
MIZ007>008-015-181600-
EASTERN UPPER MICHIGAN

CITY           SKY/WX    TMP DP  RH WIND       PRES   REMARKS
KINROSS        PTSUNNY   43  36  75 E8        30.24R
MACKINAC ISLAN PTSUNNY   46  38  73 E10       30.22S
NEWBERRY       MOSUNNY   43  34  70 NE5       30.23S
S. S. MARIE    SUNNY     44  31  60 SE7       30.24R
$$
MIZ004>006-011>014-085-181600-
CENTRAL UPPER MICHIGAN

CITY           SKY/WX    TMP DP  RH WIND       PRES   REMARKS
MANISTIQUE     MOSUNNY   45  36  69 NE8       30.22S
ESCANABA       MOSUNNY   46  36  66 E6        30.22R
MENOMINEE      CLOUDY    48  37  66 E6        30.21R
SAWYER-GWINN   PTSUNNY   43  34  70 E5        30.21R
$$
MIZ001>003-009>011-084-181600-
WESTERN UPPER MICHIGAN

CITY           SKY/WX    TMP DP  RH WIND       PRES   REMARKS
IRON MOUNTAIN  PTSUNNY   46  35  65 E7        30.20R
HOUGHTON       CLOUDY    44  35  70 SE5       30.20R
COPPER HARBOR    N/A     45  34  65 SE6       30.22S
IRONWOOD       CLOUDY    43  39  87 S6        30.16R
$$

ABBREVIATIONS USED IN REMARKS
   TC - TEMPERATURE IN CELSIUS
  WCI - WIND CHILL INDEX
   HX - HEAT INDEX
  VSB - VISIBILITY



USA.gov is the U.S. government's official web portal to all federal, state and local government web resources and services.